AXB216 VEBN-VTBS

Flight info

Callsign AXB216
Flight time N/A
Altitude 39000
Route GGC R460 CEA L507 IGONI WILLA1C
Aircraft A20N/M-SDE2E3FGHIRWXY/LB1

Departure

Time 2026-04-17 10:04
Airport Lal Bahadur Shastri International Airport (VEBN)

Arrival

Time N/A
Airport Suvarnabhumi Airport (VTBS)
Time Latitude Longitude Altitude Speed Heading
2026-04-17 09:42 25.44951 82.85632 277 ft 0 kts 186°
2026-04-17 09:51 25.44963 82.85633 417 ft 2 kts 186°
2026-04-17 09:51 25.44978 82.85635 243 ft 2 kts 186°
2026-04-17 09:52 25.44993 82.85636 281 ft 2 kts 186°
2026-04-17 09:52 25.45008 82.85638 279 ft 2 kts 186°
2026-04-17 09:52 25.45023 82.85640 282 ft 2 kts 205°
2026-04-17 09:52 25.45034 82.85650 283 ft 2 kts 260°
2026-04-17 09:53 25.45035 82.85635 277 ft 3 kts 270°
2026-04-17 09:53 25.45035 82.85624 277 ft 0 kts 270°
2026-04-17 09:55 25.45035 82.85623 277 ft 1 kts 270°
2026-04-17 09:56 25.45035 82.85608 277 ft 3 kts 274°
2026-04-17 09:56 25.45037 82.85571 277 ft 6 kts 274°
2026-04-17 09:56 25.45069 82.85543 277 ft 7 kts 349°
2026-04-17 09:56 25.45124 82.85543 277 ft 9 kts
2026-04-17 09:57 25.45147 82.85544 277 ft 0 kts
2026-04-17 09:58 25.45148 82.85544 277 ft 1 kts
2026-04-17 09:58 25.45162 82.85544 277 ft 3 kts
2026-04-17 09:59 25.45195 82.85545 277 ft 6 kts
2026-04-17 09:59 25.45232 82.85568 277 ft 7 kts 57°
2026-04-17 09:59 25.45239 82.85628 277 ft 9 kts 91°
2026-04-17 09:59 25.45237 82.85711 279 ft 12 kts 91°
2026-04-17 10:00 25.45233 82.85814 277 ft 15 kts 95°
2026-04-17 10:00 25.45224 82.85936 277 ft 17 kts 93°
2026-04-17 10:00 25.45218 82.86076 277 ft 19 kts 92°
2026-04-17 10:00 25.45210 82.86232 277 ft 21 kts 94°
2026-04-17 10:01 25.45200 82.86402 276 ft 23 kts 93°
2026-04-17 10:01 25.45193 82.86589 275 ft 25 kts 91°
2026-04-17 10:01 25.45180 82.86784 276 ft 26 kts 92°
2026-04-17 10:01 25.45173 82.86987 276 ft 27 kts 94°
2026-04-17 10:02 25.45161 82.87198 278 ft 28 kts 93°
2026-04-17 10:02 25.45160 82.87408 278 ft 25 kts 72°
2026-04-17 10:02 25.45156 82.87544 277 ft 5 kts 157°
2026-04-17 10:02 25.45150 82.87531 277 ft 5 kts 248°
2026-04-17 10:03 25.45148 82.87504 277 ft 0 kts 268°
2026-04-17 10:03 25.45148 82.87503 277 ft 3 kts 268°
2026-04-17 10:03 25.45162 82.87208 278 ft 75 kts 274°
2026-04-17 10:03 25.45201 82.86396 277 ft 133 kts 273°
2026-04-17 10:04 25.45250 82.85256 630 ft 149 kts 274°
2026-04-17 10:04 25.45291 82.84131 1277 ft 150 kts 275°
2026-04-17 10:04 25.45351 82.82963 1828 ft 153 kts 276°
2026-04-17 10:04 25.45416 82.81743 2315 ft 168 kts 276°
2026-04-17 10:05 25.45482 82.80380 2651 ft 188 kts 269°
2026-04-17 10:05 25.45096 82.78923 2992 ft 211 kts 242°
2026-04-17 10:05 25.43992 82.77743 3315 ft 238 kts 208°
2026-04-17 10:05 25.42311 82.77319 3631 ft 264 kts 178°
2026-04-17 10:06 25.40485 82.77880 4080 ft 283 kts 149°
2026-04-17 10:06 25.39053 82.79378 4878 ft 287 kts 121°
2026-04-17 10:06 25.38371 82.81436 5733 ft 288 kts 96°
2026-04-17 10:06 25.38248 82.83666 6504 ft 292 kts 90°
2026-04-17 10:07 25.38096 82.85921 7246 ft 297 kts 96°
2026-04-17 10:07 25.37729 82.88196 8031 ft 304 kts 101°
2026-04-17 10:07 25.37197 82.90446 8804 ft 310 kts 104°
2026-04-17 10:07 25.36540 82.92783 9551 ft 317 kts 106°
2026-04-17 10:08 25.35836 82.95125 10206 ft 328 kts 107°
2026-04-17 10:08 25.35082 82.97600 10471 ft 351 kts 107°
2026-04-17 10:08 25.34288 83.00201 10747 ft 370 kts 107°
2026-04-17 10:08 25.33463 83.02912 11426 ft 374 kts 107°
2026-04-17 10:09 25.32631 83.05651 12169 ft 378 kts 107°
2026-04-17 10:09 25.31796 83.08419 12893 ft 382 kts 107°
2026-04-17 10:09 25.30949 83.11220 13615 ft 386 kts 107°
2026-04-17 10:09 25.30094 83.14047 14223 ft 390 kts 107°
2026-04-17 10:10 25.29227 83.16901 14811 ft 394 kts 108°
2026-04-17 10:10 25.28356 83.19779 15407 ft 397 kts 108°
2026-04-17 10:10 25.27473 83.22688 15992 ft 401 kts 108°
2026-04-17 10:11 25.25677 83.28598 17157 ft 409 kts 108°
2026-04-17 10:11 25.24766 83.31595 17718 ft 414 kts 108°
2026-04-17 10:11 25.23845 83.34623 18231 ft 418 kts 108°
2026-04-17 10:11 25.22915 83.37671 18756 ft 420 kts 108°
2026-04-17 10:12 25.21981 83.40738 19271 ft 423 kts 108°
2026-04-17 10:12 25.21039 83.43827 19763 ft 426 kts 108°
2026-04-17 10:12 25.20090 83.46938 20276 ft 429 kts 109°
2026-04-17 10:12 25.19135 83.50066 20766 ft 432 kts 109°
2026-04-17 10:13 25.18171 83.53218 21253 ft 435 kts 109°
2026-04-17 10:13 25.17198 83.56396 21744 ft 438 kts 109°
2026-04-17 10:13 25.16220 83.59591 22225 ft 441 kts 109°
2026-04-17 10:13 25.15235 83.62805 22709 ft 444 kts 109°
2026-04-17 10:14 25.14243 83.66039 23180 ft 447 kts 109°
2026-04-17 10:14 25.13242 83.69301 23604 ft 450 kts 109°
2026-04-17 10:14 25.12232 83.72588 23981 ft 453 kts 110°
2026-04-17 10:14 25.11215 83.75894 24360 ft 457 kts 110°
2026-04-17 10:15 25.10192 83.79219 24729 ft 460 kts 110°
2026-04-17 10:15 25.09158 83.82574 25096 ft 463 kts 110°
2026-04-17 10:15 25.08118 83.85946 25457 ft 466 kts 110°
2026-04-17 10:15 25.07069 83.89345 25822 ft 469 kts 110°
2026-04-17 10:16 25.06015 83.92757 26172 ft 472 kts 110°
2026-04-17 10:16 25.04952 83.96197 26521 ft 475 kts 110°
2026-04-17 10:16 25.03882 83.99653 26870 ft 478 kts 110°
2026-04-17 10:16 25.02806 84.03126 27207 ft 480 kts 110°
2026-04-17 10:17 25.01725 84.06615 27545 ft 483 kts 110°
2026-04-17 10:17 25.00634 84.10129 27877 ft 486 kts 110°
2026-04-17 10:17 24.99552 84.13612 28210 ft 488 kts 110°
2026-04-17 10:17 24.98434 84.17209 28526 ft 491 kts 110°
2026-04-17 10:18 24.97324 84.20776 28848 ft 493 kts 110°
2026-04-17 10:18 24.96207 84.24363 29167 ft 496 kts 110°
2026-04-17 10:18 24.95099 84.27915 29471 ft 498 kts 110°
2026-04-17 10:18 24.93971 84.31528 29769 ft 501 kts 110°
2026-04-17 10:19 24.92834 84.35171 30042 ft 503 kts 110°
2026-04-17 10:19 24.91693 84.38817 30309 ft 505 kts 110°
2026-04-17 10:19 24.90544 84.42490 30566 ft 508 kts 110°
2026-04-17 10:19 24.89391 84.46169 30851 ft 510 kts 110°
2026-04-17 10:20 24.88232 84.49866 31163 ft 510 kts 110°
2026-04-17 10:20 24.87072 84.53562 31507 ft 510 kts 110°
2026-04-17 10:20 24.85913 84.57249 31853 ft 510 kts 110°
2026-04-17 10:20 24.84754 84.60932 32189 ft 510 kts 110°
2026-04-17 10:21 24.83592 84.64624 32511 ft 510 kts 110°
2026-04-17 10:21 24.82429 84.68313 32835 ft 510 kts 110°
2026-04-17 10:21 24.81267 84.71996 33143 ft 510 kts 110°
2026-04-17 10:21 24.80102 84.75685 33459 ft 509 kts 110°
2026-04-17 10:22 24.78938 84.79368 33748 ft 509 kts 110°
2026-04-17 10:22 24.77775 84.83044 33999 ft 510 kts 110°
2026-04-17 10:22 24.76608 84.86727 34216 ft 510 kts 110°
2026-04-17 10:22 24.75437 84.90414 34432 ft 511 kts 111°
2026-04-17 10:23 24.74052 84.94009 34638 ft 509 kts 119°
2026-04-17 10:23 24.72941 84.96278 34765 ft 508 kts 123°
2026-04-17 10:23 24.71013 84.99515 34975 ft 507 kts 128°
2026-04-17 10:23 24.69024 85.02715 35173 ft 507 kts 127°
2026-04-17 10:24 24.67041 85.05932 35383 ft 507 kts 127°
2026-04-17 10:24 24.65063 85.09145 35580 ft 508 kts 127°
2026-04-17 10:24 24.62415 85.13446 35833 ft 508 kts 127°
2026-04-17 10:24 24.61104 85.15573 35971 ft 508 kts 127°
2026-04-17 10:25 24.59714 85.17824 36095 ft 509 kts 127°
2026-04-17 10:25 24.57902 85.20760 36264 ft 509 kts 127°
2026-04-17 10:25 24.55913 85.23978 36454 ft 509 kts 127°
2026-04-17 10:25 24.53926 85.27191 36636 ft 509 kts 127°
2026-04-17 10:26 24.51938 85.30403 36809 ft 509 kts 127°
2026-04-17 10:26 24.49947 85.33618 36994 ft 509 kts 127°
2026-04-17 10:26 24.47957 85.36830 37168 ft 509 kts 127°
2026-04-17 10:26 24.45968 85.40038 37331 ft 509 kts 128°
2026-04-17 10:27 24.43975 85.43251 37491 ft 509 kts 128°
2026-04-17 10:27 24.41985 85.46456 37646 ft 509 kts 128°
2026-04-17 10:27 24.39992 85.49663 37815 ft 508 kts 128°
2026-04-17 10:27 24.38001 85.52867 37950 ft 508 kts 128°
2026-04-17 10:28 24.36006 85.56073 38099 ft 508 kts 128°
2026-04-17 10:28 24.34041 85.59230 38231 ft 508 kts 128°
2026-04-17 10:28 24.32048 85.62429 38378 ft 508 kts 128°
2026-04-17 10:28 24.30058 85.65623 38509 ft 507 kts 128°
2026-04-17 10:29 24.28068 85.68814 38636 ft 507 kts 128°
2026-04-17 10:29 24.26083 85.71994 38768 ft 505 kts 128°
2026-04-17 10:29 24.24094 85.75179 38826 ft 505 kts 128°
2026-04-17 10:30 24.20135 85.81512 38829 ft 503 kts 128°
2026-04-17 10:30 24.16177 85.87834 38834 ft 503 kts 128°
2026-04-17 10:31 24.12221 85.94146 38837 ft 503 kts 128°
2026-04-17 10:31 24.08268 86.00447 38838 ft 502 kts 128°
2026-04-17 10:32 24.04317 86.06735 38831 ft 501 kts 128°
2026-04-17 10:32 24.00373 86.13005 38832 ft 500 kts 128°
2026-04-17 10:33 23.96432 86.19261 38804 ft 499 kts 128°
2026-04-17 10:33 23.92477 86.25528 38825 ft 503 kts 128°
2026-04-17 10:34 23.88485 86.31848 38817 ft 508 kts 128°
2026-04-17 10:34 23.84449 86.38232 38822 ft 513 kts 128°
2026-04-17 10:35 23.80381 86.44673 38813 ft 518 kts 126°
2026-04-17 10:35 23.76630 86.51399 38809 ft 518 kts 123°
2026-04-17 10:36 23.72964 86.58170 38812 ft 518 kts 123°
2026-04-17 10:36 23.69251 86.64894 38803 ft 518 kts 123°
2026-04-17 10:37 23.65514 86.71610 38808 ft 518 kts 124°
2026-04-17 10:37 23.61774 86.78318 38804 ft 517 kts 123°
2026-04-17 10:38 23.58038 86.85012 38801 ft 517 kts 124°
2026-04-17 10:38 23.54298 86.91705 38796 ft 517 kts 124°
2026-04-17 10:39 23.50559 86.98387 38800 ft 517 kts 123°
2026-04-17 10:39 23.46818 87.05066 38793 ft 516 kts 123°
2026-04-17 10:40 23.43112 87.11691 38792 ft 516 kts 123°
2026-04-17 10:40 23.39378 87.18363 38790 ft 515 kts 123°
2026-04-17 10:41 23.35648 87.25016 38787 ft 515 kts 123°
2026-04-17 10:41 23.31913 87.31668 38776 ft 515 kts 123°
2026-04-17 10:42 23.28177 87.38312 38777 ft 514 kts 123°
2026-04-17 10:42 23.24447 87.44939 38774 ft 514 kts 123°
2026-04-17 10:43 23.20712 87.51564 38778 ft 514 kts 123°
2026-04-17 10:43 23.16975 87.58185 38778 ft 514 kts 123°
2026-04-17 10:44 23.13241 87.64793 38778 ft 513 kts 123°
2026-04-17 10:44 23.09501 87.71400 38783 ft 513 kts 123°
2026-04-17 10:45 23.05762 87.78000 38781 ft 513 kts 123°
2026-04-17 10:45 23.02022 87.84592 38783 ft 513 kts 123°
2026-04-17 10:46 22.98278 87.91182 38782 ft 513 kts 123°
2026-04-17 10:46 22.94534 87.97764 38777 ft 512 kts 123°
2026-04-17 10:47 22.90789 88.04339 38776 ft 512 kts 123°
2026-04-17 10:47 22.87068 88.10865 38779 ft 512 kts 123°
2026-04-17 10:48 22.83477 88.17154 38783 ft 512 kts 123°
2026-04-17 10:48 22.79732 88.23706 38783 ft 511 kts 123°
2026-04-17 10:49 22.75985 88.30251 38782 ft 511 kts 123°
2026-04-17 10:49 22.72241 88.36784 38781 ft 510 kts 123°
2026-04-17 10:50 22.68499 88.43306 38774 ft 510 kts 123°
2026-04-17 10:50 22.64470 88.49607 38784 ft 508 kts 127°
2026-04-17 10:51 22.60373 88.55832 38777 ft 507 kts 127°
2026-04-17 10:51 22.56281 88.62048 38785 ft 507 kts 127°
2026-04-17 10:52 22.52191 88.68247 38776 ft 506 kts 127°
2026-04-17 10:52 22.48103 88.74435 38780 ft 505 kts 127°
2026-04-17 10:53 22.44013 88.80618 38786 ft 505 kts 127°
2026-04-17 10:53 22.39932 88.86781 38790 ft 504 kts 127°
2026-04-17 10:54 22.35850 88.92937 38786 ft 504 kts 127°
2026-04-17 10:54 22.31770 88.99085 38791 ft 503 kts 127°
2026-04-17 10:55 22.27755 89.05272 38794 ft 503 kts 124°
2026-04-17 10:55 22.23924 89.11580 38795 ft 502 kts 124°
2026-04-17 10:56 22.20079 89.17873 38797 ft 502 kts 124°
2026-04-17 10:56 22.16215 89.24141 38794 ft 501 kts 125°
2026-04-17 10:57 22.12351 89.30392 38802 ft 500 kts 125°
2026-04-17 10:57 22.08491 89.36629 38804 ft 500 kts 125°
2026-04-17 10:58 22.04635 89.42854 38809 ft 499 kts 125°
2026-04-17 10:58 22.00805 89.49029 38809 ft 498 kts 125°
2026-04-17 10:59 21.96952 89.55234 38811 ft 498 kts 125°
2026-04-17 10:59 21.93105 89.61423 38812 ft 497 kts 125°
2026-04-17 11:00 21.89259 89.67604 38810 ft 496 kts 125°
2026-04-17 11:00 21.85415 89.73771 38810 ft 498 kts 124°
2026-04-17 11:01 21.81532 89.79997 38817 ft 500 kts 125°
2026-04-17 11:01 21.77688 89.86154 38818 ft 494 kts 125°
2026-04-17 11:02 21.73845 89.92300 38817 ft 496 kts 125°
2026-04-17 11:02 21.69999 89.98446 38818 ft 495 kts 125°
2026-04-17 11:03 21.66153 90.04583 38822 ft 495 kts 125°
2026-04-17 11:03 21.62311 90.10709 38822 ft 494 kts 125°
2026-04-17 11:04 21.58473 90.16819 38818 ft 493 kts 125°
2026-04-17 11:04 21.54639 90.22919 38820 ft 492 kts 125°
2026-04-17 11:05 21.47497 90.34260 38816 ft 491 kts 125°
2026-04-17 11:06 21.43672 90.40326 38812 ft 491 kts 125°
2026-04-17 11:06 21.39846 90.46385 38815 ft 490 kts 125°
2026-04-17 11:07 21.36019 90.52440 38819 ft 490 kts 125°
2026-04-17 11:07 21.32204 90.58473 38821 ft 490 kts 125°
2026-04-17 11:08 21.28374 90.64524 38819 ft 490 kts 125°
2026-04-17 11:08 21.24548 90.70564 38824 ft 489 kts 125°
2026-04-17 11:09 21.20720 90.76600 38823 ft 489 kts 125°
2026-04-17 11:09 21.16893 90.82628 38827 ft 489 kts 125°
2026-04-17 11:10 21.11174 90.91626 38828 ft 489 kts 125°
2026-04-17 11:10 21.07342 90.97645 38830 ft 489 kts 125°
2026-04-17 11:11 21.03505 91.03666 38829 ft 489 kts 125°
2026-04-17 11:11 20.99668 91.09681 38832 ft 489 kts 125°
2026-04-17 11:12 20.95831 91.15690 38831 ft 489 kts 125°
2026-04-17 11:12 20.91986 91.21704 38833 ft 489 kts 125°
2026-04-17 11:13 20.88142 91.27711 38834 ft 489 kts 125°
2026-04-17 11:13 20.84298 91.33710 38832 ft 489 kts 125°
2026-04-17 11:14 20.80453 91.39707 38835 ft 489 kts 125°
2026-04-17 11:14 20.76604 91.45701 38835 ft 489 kts 125°
2026-04-17 11:15 20.72758 91.51686 38835 ft 489 kts 125°
2026-04-17 11:15 20.68909 91.57669 38833 ft 489 kts 125°
2026-04-17 11:16 20.65056 91.63652 38834 ft 488 kts 126°
2026-04-17 11:16 20.61206 91.69623 38829 ft 488 kts 126°
2026-04-17 11:17 20.57352 91.75595 38827 ft 488 kts 126°
2026-04-17 11:17 20.53500 91.81558 38828 ft 488 kts 126°
2026-04-17 11:18 20.49644 91.87520 38827 ft 488 kts 126°
2026-04-17 11:18 20.45789 91.93475 38831 ft 488 kts 126°
2026-04-17 11:19 20.41930 91.99431 38830 ft 488 kts 126°
2026-04-17 11:19 20.38042 92.05354 38831 ft 487 kts 126°
2026-04-17 11:20 20.34161 92.11214 38825 ft 487 kts 126°
2026-04-17 11:20 20.30262 92.17114 38827 ft 487 kts 126°
2026-04-17 11:21 20.26358 92.23019 38827 ft 487 kts 126°
2026-04-17 11:21 20.22457 92.28915 38831 ft 487 kts 126°
2026-04-17 11:22 20.18555 92.34805 38828 ft 487 kts 126°
2026-04-17 11:22 20.14654 92.40686 38837 ft 486 kts 126°
2026-04-17 11:23 20.10756 92.46558 38833 ft 486 kts 126°
2026-04-17 11:23 20.06854 92.52431 38831 ft 485 kts 126°
2026-04-17 11:24 20.02958 92.58287 38837 ft 485 kts 126°
2026-04-17 11:24 19.99064 92.64136 38832 ft 485 kts 126°
2026-04-17 11:25 19.95166 92.69984 38833 ft 484 kts 126°
2026-04-17 11:25 19.91278 92.75812 38832 ft 484 kts 126°
2026-04-17 11:26 19.87385 92.81641 38833 ft 483 kts 126°
2026-04-17 11:26 19.83498 92.87457 38828 ft 483 kts 126°
2026-04-17 11:27 19.79607 92.93271 38824 ft 482 kts 126°
2026-04-17 11:27 19.75722 92.99072 38826 ft 482 kts 126°
2026-04-17 11:28 19.71832 93.04875 38827 ft 482 kts 126°
2026-04-17 11:28 19.67948 93.10663 38823 ft 482 kts 126°
2026-04-17 11:29 19.64083 93.16417 38830 ft 482 kts 126°
2026-04-17 11:29 19.60172 93.22234 38827 ft 481 kts 126°
2026-04-17 11:30 19.56306 93.27978 38831 ft 481 kts 126°
2026-04-17 11:30 19.52387 93.33796 38829 ft 481 kts 126°
2026-04-17 11:31 19.48521 93.39530 38829 ft 481 kts 126°
2026-04-17 11:31 19.44625 93.45303 38834 ft 481 kts 126°
2026-04-17 11:32 19.40728 93.51070 38836 ft 481 kts 126°
2026-04-17 11:32 19.36834 93.56830 38835 ft 481 kts 127°
2026-04-17 11:33 19.32933 93.62594 38848 ft 481 kts 127°
2026-04-17 11:33 19.29031 93.68353 38830 ft 480 kts 127°
2026-04-17 11:34 19.25139 93.74093 38830 ft 480 kts 127°
2026-04-17 11:34 19.21246 93.79829 38836 ft 479 kts 127°
2026-04-17 11:35 19.17356 93.85554 38830 ft 479 kts 127°
2026-04-17 11:35 19.13489 93.91241 38837 ft 479 kts 127°
2026-04-17 11:36 19.09565 93.97006 38846 ft 480 kts 127°
2026-04-17 11:36 19.05693 94.02690 38845 ft 480 kts 127°
2026-04-17 11:37 19.01794 94.08407 38830 ft 478 kts 127°
2026-04-17 11:37 18.97909 94.14101 38830 ft 478 kts 127°
2026-04-17 11:38 18.94021 94.19791 38833 ft 477 kts 127°
2026-04-17 11:38 18.90135 94.25474 38834 ft 477 kts 127°
2026-04-17 11:39 18.86247 94.31156 38855 ft 477 kts 127°
2026-04-17 11:39 18.82363 94.36826 38859 ft 476 kts 127°
2026-04-17 11:40 18.78482 94.42487 38855 ft 476 kts 127°
2026-04-17 11:40 18.74600 94.48142 38855 ft 475 kts 127°
2026-04-17 11:41 18.70725 94.53785 38846 ft 475 kts 127°
2026-04-17 11:41 18.66845 94.59429 38844 ft 475 kts 127°
2026-04-17 11:42 18.62997 94.65023 38846 ft 475 kts 127°
2026-04-17 11:42 18.59120 94.70655 38854 ft 475 kts 127°
2026-04-17 11:43 18.55287 94.76327 38853 ft 475 kts 126°
2026-04-17 11:43 18.51553 94.82065 38840 ft 475 kts 125°
2026-04-17 11:44 18.47805 94.87799 38835 ft 475 kts 126°
2026-04-17 11:44 18.44044 94.93522 38831 ft 475 kts 126°
2026-04-17 11:45 18.40283 94.99236 38820 ft 475 kts 126°
2026-04-17 11:45 18.36519 95.04949 38816 ft 475 kts 126°
2026-04-17 11:46 18.32753 95.10661 38810 ft 475 kts 126°
2026-04-17 11:46 18.28980 95.16355 38804 ft 474 kts 127°
2026-04-17 11:47 18.25032 95.21908 38799 ft 474 kts 128°
2026-04-17 11:47 18.21060 95.27446 38791 ft 474 kts 128°
2026-04-17 11:48 18.17118 95.32986 38792 ft 474 kts 128°
2026-04-17 11:48 18.13177 95.38533 38788 ft 473 kts 128°
2026-04-17 11:49 18.09237 95.44076 38788 ft 473 kts 128°
2026-04-17 11:49 18.05320 95.49579 38788 ft 473 kts 128°
2026-04-17 11:50 18.01383 95.55108 38788 ft 473 kts 128°
2026-04-17 11:50 17.97441 95.60637 38787 ft 472 kts 128°
2026-04-17 11:51 17.93502 95.66158 38791 ft 472 kts 128°
2026-04-17 11:51 17.89563 95.71675 38788 ft 472 kts 128°
2026-04-17 11:52 17.85624 95.77187 38792 ft 472 kts 128°
2026-04-17 11:52 17.81683 95.82696 38792 ft 472 kts 128°
2026-04-17 11:53 17.77745 95.88198 38793 ft 472 kts 128°
2026-04-17 11:53 17.74469 95.92771 38790 ft 472 kts 128°
2026-04-17 11:54 17.70526 95.98270 38793 ft 472 kts 128°
2026-04-17 11:54 17.65918 96.04692 38796 ft 472 kts 128°
2026-04-17 11:55 17.62639 96.09258 38792 ft 472 kts 128°
2026-04-17 11:55 17.58691 96.14750 38789 ft 472 kts 128°
2026-04-17 11:56 17.54742 96.20242 38792 ft 472 kts 128°
2026-04-17 11:56 17.50791 96.25729 38791 ft 472 kts 128°
2026-04-17 11:57 17.46838 96.31216 38788 ft 472 kts 128°
2026-04-17 11:57 17.42880 96.36705 38789 ft 472 kts 128°
2026-04-17 11:58 17.38947 96.42155 38794 ft 472 kts 128°
2026-04-17 11:58 17.34988 96.47637 38797 ft 472 kts 128°
2026-04-17 11:59 17.31024 96.53120 38794 ft 472 kts 128°
2026-04-17 11:59 17.27011 96.58559 38797 ft 472 kts 129°
2026-04-17 12:00 17.22980 96.63997 38796 ft 473 kts 129°
2026-04-17 12:00 17.18980 96.69403 38805 ft 473 kts 129°
2026-04-17 12:01 17.14936 96.74870 38804 ft 473 kts 129°
2026-04-17 12:01 17.10908 96.80309 38804 ft 473 kts 129°
2026-04-17 12:02 17.06876 96.85750 38810 ft 473 kts 129°
2026-04-17 12:02 17.02844 96.91186 38809 ft 473 kts 129°
2026-04-17 12:03 16.98809 96.96621 38815 ft 473 kts 129°
2026-04-17 12:03 16.94771 97.02057 38818 ft 473 kts 129°
2026-04-17 12:04 16.90736 97.07486 38816 ft 473 kts 129°
2026-04-17 12:04 16.86696 97.12915 38815 ft 473 kts 130°
2026-04-17 12:05 16.82658 97.18338 38807 ft 473 kts 130°
2026-04-17 12:05 16.78641 97.23730 38806 ft 473 kts 130°
2026-04-17 12:06 16.74598 97.29150 38816 ft 473 kts 130°
2026-04-17 12:06 16.70537 97.34592 38816 ft 473 kts 130°
2026-04-17 12:07 16.66518 97.39972 38813 ft 473 kts 130°
2026-04-17 12:07 16.62476 97.45379 38811 ft 473 kts 130°
2026-04-17 12:08 16.58427 97.50792 38811 ft 473 kts 130°
2026-04-17 12:08 16.54382 97.56195 38811 ft 473 kts 130°
2026-04-17 12:09 16.50334 97.61598 38807 ft 473 kts 130°
2026-04-17 12:09 16.46283 97.67001 38809 ft 473 kts 130°
2026-04-17 12:10 16.42234 97.72397 38808 ft 473 kts 130°
2026-04-17 12:10 16.38194 97.77736 38809 ft 472 kts 133°
2026-04-17 12:11 16.33552 97.82583 38806 ft 468 kts 142°
2026-04-17 12:12 16.26169 97.89202 38811 ft 468 kts 142°
2026-04-17 12:12 16.21229 97.93652 38810 ft 468 kts 142°
2026-04-17 12:13 16.16307 97.98079 38815 ft 468 kts 142°
2026-04-17 12:13 16.11373 98.02513 38816 ft 468 kts 142°
2026-04-17 12:14 16.06446 98.06937 38820 ft 468 kts 142°
2026-04-17 12:14 16.01515 98.11362 38824 ft 468 kts 142°
2026-04-17 12:15 15.96584 98.15784 38826 ft 468 kts 142°
2026-04-17 12:15 15.91653 98.20203 38829 ft 468 kts 142°
2026-04-17 12:16 15.86724 98.24617 38835 ft 468 kts 142°
2026-04-17 12:16 15.81793 98.29030 38839 ft 468 kts 142°
2026-04-17 12:17 15.76860 98.33441 38844 ft 468 kts 142°
2026-04-17 12:17 15.71971 98.37811 38838 ft 467 kts 142°
2026-04-17 12:18 15.67010 98.42242 38842 ft 466 kts 142°
2026-04-17 12:18 15.62095 98.46628 38850 ft 466 kts 142°
2026-04-17 12:19 15.57180 98.51012 38853 ft 466 kts 142°
2026-04-17 12:19 15.52264 98.55393 38858 ft 466 kts 142°
2026-04-17 12:20 15.47496 98.59955 38862 ft 469 kts 135°
2026-04-17 12:20 15.43334 98.65166 38864 ft 470 kts 131°
2026-04-17 12:21 15.39217 98.70435 38867 ft 470 kts 131°
2026-04-17 12:21 15.35141 98.75639 38870 ft 470 kts 131°
2026-04-17 12:22 15.30972 98.80958 38869 ft 470 kts 131°
2026-04-17 12:22 15.26849 98.86218 38871 ft 471 kts 131°
2026-04-17 12:23 15.22725 98.91473 38872 ft 470 kts 131°
2026-04-17 12:23 15.18601 98.96725 38859 ft 470 kts 131°
2026-04-17 12:23 15.16540 98.99349 38714 ft 470 kts 131°
2026-04-17 12:24 15.14484 99.01966 38481 ft 469 kts 132°
2026-04-17 12:24 15.12427 99.04583 38211 ft 469 kts 132°
2026-04-17 12:24 15.10366 99.07204 37941 ft 470 kts 131°
2026-04-17 12:24 15.08300 99.09830 37677 ft 470 kts 131°
2026-04-17 12:25 15.06236 99.12453 37339 ft 471 kts 131°
2026-04-17 12:25 15.04157 99.15093 36657 ft 475 kts 131°
2026-04-17 12:25 15.02060 99.17755 35806 ft 480 kts 131°
2026-04-17 12:25 14.99941 99.20444 35037 ft 483 kts 131°
2026-04-17 12:26 14.97813 99.23146 34262 ft 486 kts 131°
2026-04-17 12:26 14.95668 99.25868 33357 ft 490 kts 131°
2026-04-17 12:26 14.93517 99.28596 32655 ft 488 kts 131°
2026-04-17 12:26 14.91371 99.31317 31765 ft 491 kts 131°
2026-04-17 12:27 14.89200 99.34066 30723 ft 497 kts 131°
2026-04-17 12:27 14.87056 99.36780 29759 ft 501 kts 130°
2026-04-17 12:27 14.84800 99.39637 28763 ft 500 kts 130°
2026-04-17 12:27 14.82611 99.42408 28099 ft 494 kts 130°
2026-04-17 12:28 14.80452 99.45141 27443 ft 488 kts 130°
2026-04-17 12:28 14.78341 99.47812 26814 ft 482 kts 130°
2026-04-17 12:28 14.76243 99.50466 26339 ft 473 kts 130°
2026-04-17 12:28 14.74194 99.53057 26082 ft 459 kts 130°
2026-04-17 12:29 14.72200 99.55578 25864 ft 446 kts 130°
2026-04-17 12:29 14.70254 99.58037 25625 ft 440 kts 130°
2026-04-17 12:29 14.68308 99.60494 25389 ft 445 kts 130°
2026-04-17 12:29 14.66346 99.62970 25160 ft 444 kts 130°
2026-04-17 12:30 14.64400 99.65427 24934 ft 442 kts 130°
2026-04-17 12:30 14.62456 99.67879 24710 ft 440 kts 130°
2026-04-17 12:30 14.60519 99.70323 24477 ft 439 kts 130°
2026-04-17 12:30 14.58582 99.72767 23970 ft 441 kts 130°
2026-04-17 12:31 14.56635 99.75221 23349 ft 442 kts 130°
2026-04-17 12:31 14.54692 99.77668 22737 ft 438 kts 130°
2026-04-17 12:31 14.52776 99.80083 22157 ft 433 kts 130°
2026-04-17 12:31 14.50881 99.82470 21587 ft 428 kts 129°
2026-04-17 12:32 14.49005 99.84832 21014 ft 424 kts 129°
2026-04-17 12:32 14.47143 99.87175 20407 ft 421 kts 129°
2026-04-17 12:32 14.45402 99.89567 19872 ft 415 kts 122°
2026-04-17 12:32 14.44069 99.92200 19301 ft 411 kts 112°
2026-04-17 12:33 14.43193 99.94945 18739 ft 407 kts 103°
2026-04-17 12:33 14.42514 99.97754 18175 ft 404 kts 103°
2026-04-17 12:33 14.41819 100.00565 17588 ft 400 kts 103°
2026-04-17 12:33 14.41137 100.03295 17405 ft 385 kts 103°
2026-04-17 12:34 14.40479 100.05928 17083 ft 375 kts 103°
2026-04-17 12:34 14.39837 100.08493 16852 ft 364 kts 103°
2026-04-17 12:34 14.39204 100.11031 16662 ft 368 kts 103°
2026-04-17 12:34 14.38565 100.13592 16375 ft 369 kts 103°
2026-04-17 12:35 14.37929 100.16143 16082 ft 365 kts 103°
2026-04-17 12:35 14.37297 100.18669 15788 ft 362 kts 103°
2026-04-17 12:35 14.36669 100.21182 15502 ft 361 kts 103°
2026-04-17 12:35 14.36045 100.23679 15214 ft 360 kts 103°
2026-04-17 12:37 14.31837 100.40475 13645 ft 321 kts 104°
2026-04-17 12:37 14.31459 100.41980 13337 ft 320 kts 104°
2026-04-17 12:38 14.30724 100.44914 12748 ft 318 kts 104°
2026-04-17 12:38 14.30176 100.47100 12483 ft 311 kts 104°
2026-04-17 12:38 14.29637 100.49248 12239 ft 310 kts 104°
2026-04-17 12:38 14.29095 100.51411 11989 ft 314 kts 104°
2026-04-17 12:39 14.28551 100.53580 11770 ft 310 kts 104°
2026-04-17 12:39 14.28013 100.55718 11644 ft 308 kts 104°
2026-04-17 12:39 14.27470 100.57869 11423 ft 311 kts 104°
2026-04-17 12:39 14.26926 100.60023 11170 ft 309 kts 104°
2026-04-17 12:40 14.26390 100.62148 11049 ft 305 kts 105°
2026-04-17 12:40 14.25549 100.64148 10958 ft 306 kts 127°
2026-04-17 12:40 14.23992 100.65630 10863 ft 305 kts 151°
2026-04-17 12:40 14.22018 100.66305 10773 ft 303 kts 176°
2026-04-17 12:41 14.20612 100.66251 10712 ft 301 kts 191°
2026-04-17 12:41 14.17907 100.65506 10332 ft 302 kts 199°
2026-04-17 12:41 14.16552 100.65058 10098 ft 302 kts 199°
2026-04-17 12:41 14.14548 100.64417 9742 ft 300 kts 198°
2026-04-17 12:42 14.12603 100.63843 9589 ft 290 kts 197°
2026-04-17 12:42 14.10698 100.63313 9478 ft 277 kts 196°
2026-04-17 12:42 14.08867 100.62823 9372 ft 266 kts 195°
2026-04-17 12:42 14.07090 100.62354 9150 ft 260 kts 195°
2026-04-17 12:43 14.05383 100.61920 9044 ft 255 kts 190°
2026-04-17 12:43 14.03607 100.62022 8759 ft 258 kts 162°
2026-04-17 12:43 14.02089 100.62992 8405 ft 259 kts 133°
2026-04-17 12:43 14.01215 100.64588 8044 ft 259 kts 103°
2026-04-17 12:44 14.01197 100.66417 7707 ft 257 kts 74°
2026-04-17 12:44 14.01832 100.68131 7358 ft 255 kts 64°
2026-04-17 12:44 14.02606 100.69769 6987 ft 254 kts 64°
2026-04-17 12:44 14.03346 100.71390 6801 ft 244 kts 65°
2026-04-17 12:45 14.04000 100.72955 6705 ft 232 kts 70°
2026-04-17 12:45 14.04247 100.74538 6599 ft 219 kts 95°
2026-04-17 12:45 14.03933 100.76045 6385 ft 214 kts 107°
2026-04-17 12:45 14.03524 100.77521 6106 ft 214 kts 106°
2026-04-17 12:46 14.03126 100.78989 5820 ft 212 kts 106°
2026-04-17 12:46 14.02734 100.80449 5554 ft 211 kts 106°
2026-04-17 12:46 14.02344 100.81901 5288 ft 210 kts 105°
2026-04-17 12:46 14.01779 100.83230 5001 ft 208 kts 131°
2026-04-17 12:47 14.00575 100.84050 4699 ft 206 kts 166°
2026-04-17 12:47 13.99159 100.84048 4473 ft 202 kts 191°
2026-04-17 12:47 13.97784 100.83689 4403 ft 208 kts 195°
2026-04-17 12:47 13.96402 100.83302 4307 ft 204 kts 194°
2026-04-17 12:48 13.95033 100.82939 4220 ft 203 kts 193°
2026-04-17 12:48 13.93702 100.82588 4186 ft 191 kts 193°
2026-04-17 12:48 13.92412 100.82247 4100 ft 193 kts 193°
2026-04-17 12:48 13.91547 100.82019 4046 ft 193 kts 193°
2026-04-17 12:49 13.88551 100.81227 3645 ft 191 kts 192°
2026-04-17 12:49 13.87274 100.80891 3432 ft 189 kts 193°
2026-04-17 12:49 13.86017 100.80559 3218 ft 184 kts 192°
2026-04-17 12:50 13.84794 100.80236 2990 ft 179 kts 192°
2026-04-17 12:50 13.83633 100.79928 2769 ft 163 kts 192°
2026-04-17 12:50 13.82550 100.79643 2577 ft 163 kts 192°
2026-04-17 12:50 13.81461 100.79355 2378 ft 160 kts 192°
2026-04-17 12:51 13.80372 100.79068 2174 ft 162 kts 191°
2026-04-17 12:51 13.79302 100.78785 1971 ft 159 kts 192°
2026-04-17 12:51 13.78228 100.78502 1772 ft 158 kts 193°
2026-04-17 12:51 13.77164 100.78220 1570 ft 160 kts 193°
2026-04-17 12:52 13.76118 100.77943 1371 ft 150 kts 192°
2026-04-17 12:52 13.75134 100.77683 1182 ft 145 kts 192°
2026-04-17 12:52 13.74169 100.77430 995 ft 141 kts 193°
2026-04-17 12:52 13.73233 100.77176 820 ft 137 kts 194°
2026-04-17 12:53 13.72920 100.77094 786 ft 137 kts 194°